Back to catalog

STARLINK-3981

AliveCommunicationsVLEO
NORAD 52687·PAYLOAD·🇺🇸 United States

Launched May 18, 2022 from Cape Canaveral Space Force Station

Loading…

Next Passes (next 24 hours)

TLE

FreshSource: CelesTrak SupGP

Epoch: Sep 15, 2026, 02:50 UTC

1 52687C 22053AH  26258.11854167  .00405780  00000+0  15193-1 0  2587
2 52687  53.1607  12.0912 0001168  89.7829 147.1689 15.26554731    12

Track STARLINK-3981 in real time with AllMySat

Download on the App Store